Find Starlink 31425

NORAD ID: 59253 Int'l Des: 2024-049 Owner: SPXS Country: US Constellation: starlink operational
LEOCIRCULAR

Aktuelle Ansicht

3D-Globus wird geladen...

Über Starlink 31425

Beschreibung wird geladen...

Nächste Überflüge

Passes for default location (London). Set your location on the main map for personalized predictions.

Höhenverlauf

Loading altitude history...

Zweizeiliger Elementsatz

1 59253U 24049Y 26150.91578564 -.00000940 00000-0 -24641-4 0 9998
2 59253 43.0012 38.9773 0001248 263.0613 97.0097 15.27580252124971
Epoch: 30. Mai 2026 • Age: 12 hours

Aktueller Status

Höhe 495.5 km
Geschwindigkeit 7.62 km/s
Subsatellitenpunkt -43.15°S, 96.07°W
Startdatum 16. März 2024
Alter 2.2 years
Typ internet

Technische Details

Klassifizierung Payload
Masse 730.00 kg
Trockenmasse 700.00 kg
Gesamtmasse 730.00 kg
Länge 0.30 m
Durchmesser 4.10 m
Spannweite 29.00 m
Form Box + pan
Hersteller SPXS
Bus-Typ Starlink V2M
Phasenstatus In Orbit
Besitzer/Staat SPXS/US

Most Searched